Perry, FL

10:00 PM EST on December 04, 2016 (GMT -0500)
Perry

Weather History for K40J - March, 2012

Change the Weather History Date:

Sunday, March 4, 2012

  Actual Average (KCTY) Record (KCTY)
Temperature  
Mean Temperature 52 °F 60 °F  
Max Temperature 63 °F 74 °F 82 °F (2015)
Min Temperature 39 °F 46 °F 26 °F (2013)
Degree Days  
Heating Degree Days 13 6  
Month to date heating degree days 26  
Since 1 July heating degree days 1146  
Cooling Degree Days 0 1  
Month to date cooling degree days 4  
Year to date cooling degree days 31  
Growing Degree Days 2 (Base 50)    
Moisture  
Dew Point 34 °F    
Average Humidity 58    
Maximum Humidity 90    
Minimum Humidity 21    
Precipitation  
Precipitation 0.76 in 0.13 in 0.81 in (2001)
Month to date precipitation 0.49  
Year to date precipitation 7.80  
Sea Level Pressure  
Sea Level Pressure 30.03 in    
Wind  
Wind Speed 12 mph (NW)    
Max Wind Speed 20 mph    
Max Gust Speed 32 mph    
T = Trace of Precipitation, MM = Missing Value Source: NWS Daily Summary

Daily Weather History Graph

Daily Weather History Graph

Search for Another Location

Airport or City:

Trip Planner

Search our weather history database for the weather conditions in past years. The results will help you decide how hot, cold, wet, or windy it might be!

Date:

Astronomy

Mar. 04, 2012 Rise Set
Actual Time 6:56 AM EST 6:35 PM EST
Civil Twilight 6:32 AM EST 6:59 PM EST
Nautical Twilight 6:04 AM EST 7:27 PM EST
Astronomical Twilight 5:36 AM EST 7:55 PM EST
Moon 3:00 PM EST (3/4) 4:01 AM EST (3/4)
Length of Visible Light 12h 27m
Length of Day
11h 39m
Waxing Gibbous, 83% of the Moon is Illuminated
Mar 4
Waxing Gibbous
Mar 8
Full
Mar 14
Last Quarter
Mar 22
New
Mar 30
First Quarter

Hourly Weather History & Observations

Time (EST) Temp. Dew Point Humidity Pressure Visibility Wind Dir Wind Speed Gust Speed Precip Events Conditions
12:53 AM 51.1 °F 46.9 °F 86% 29.74 in - North 17.3 mph 26.5 mph 0.08 in   Unknown
1:53 AM 48.9 °F 46.0 °F 90% 29.75 in - North 11.5 mph 18.4 mph 0.30 in   Unknown
2:53 AM 48.9 °F 46.0 °F 90% 29.77 in - North 12.7 mph 20.7 mph 0.25 in   Unknown
3:53 AM 48.9 °F 45.0 °F 86% 29.81 in - NNW 13.8 mph 19.6 mph 0.12 in   Unknown
4:53 AM 48.9 °F 45.0 °F 86% 29.85 in - NNW 10.4 mph - N/A   Unknown
5:53 AM 48.0 °F 44.1 °F 86% 29.91 in - NW 9.2 mph - 0.01 in   Unknown
6:53 AM 48.0 °F 44.1 °F 86% 29.96 in - NW 6.9 mph - N/A   Unknown
7:53 AM 48.0 °F 43.0 °F 83% 30.01 in - WNW 9.2 mph - N/A   Unknown
8:53 AM 52.0 °F 39.9 °F 63% 30.06 in - NW 13.8 mph - N/A   Unknown
9:53 AM 55.0 °F 35.1 °F 47% 30.09 in - NW 15.0 mph 20.7 mph N/A   Unknown
10:53 AM 57.9 °F 28.0 °F 32% 30.11 in - NW 19.6 mph 27.6 mph N/A   Unknown
11:53 AM 60.1 °F 23.0 °F 24% 30.11 in - NW 19.6 mph 32.2 mph N/A   Unknown
12:53 PM 62.1 °F 21.9 °F 21% 30.06 in - NNW 13.8 mph 24.2 mph N/A   Unknown
1:53 PM 62.1 °F 21.9 °F 21% 30.06 in - NNW 15.0 mph 21.9 mph N/A   Unknown
2:53 PM 63.0 °F 23.0 °F 22% 30.04 in - NW 16.1 mph 21.9 mph N/A   Unknown
3:53 PM 63.0 °F 23.0 °F 22% 30.06 in - WNW 18.4 mph 24.2 mph N/A   Unknown
4:53 PM 62.1 °F 23.0 °F 22% 30.07 in - WNW 13.8 mph 18.4 mph N/A   Unknown
5:53 PM 60.1 °F 24.1 °F 25% 30.10 in - WNW 9.2 mph - N/A   Unknown
6:53 PM 54.0 °F 27.0 °F 35% 30.12 in - West 4.6 mph - N/A   Unknown
7:53 PM 46.9 °F 32.0 °F 56% 30.15 in - Calm Calm - N/A   Unknown
8:53 PM 45.0 °F 33.1 °F 63% 30.18 in - Calm Calm - N/A   Unknown
9:53 PM 41.0 °F 34.0 °F 76% 30.20 in - Calm Calm - N/A   Unknown
10:53 PM 41.0 °F 34.0 °F 76% 30.22 in - Calm Calm - N/A   Unknown
11:53 PM 39.9 °F 35.1 °F 83% 30.23 in - Calm Calm - N/A   Unknown